When you browse on this site, cookies collect data to enhance your experience and personalize the content and advertising you see.
Visit our Privacy Policy to learn more. By continuing to use the site, you agree to this use of cookies and data.
  • In Österreich
  • Länderverzeichnis
  • Für 7 Tage
  • Wassertemperatur
  • Satellitenkarten
  • Wetterkarte
  • News
  • Widgets
  • user-avatar
    Anmelden

    Stündliche Wetter Commerce City

    Heute, 24 Juni, Montag

    Zeit Temperatur Niederschläge Wind Luftdruck Luftfeuchtigkeit
    00:00 +14°C° 0 mm 2 m/S 631 mmHg 50%
    01:00 +14°C° 0 mm 2 m/S 630 mmHg 49%
    02:00 +12°C° 0 mm 3 m/S 630 mmHg 48%
    03:00 +12°C° 0 mm 3 m/S 630 mmHg 48%
    04:00 +12°C° 0 mm 3 m/S 630 mmHg 48%
    05:00 +14°C° 0 mm 2 m/S 630 mmHg 50%
    06:00 +16°C° 0 mm 3 m/S 630 mmHg 45%
    07:00 +18°C° 0 mm 3 m/S 631 mmHg 40%
    08:00 +20°C° 0 mm 4 m/S 631 mmHg 34%
    09:00 +22°C° 0 mm 3 m/S 631 mmHg 30%
    10:00 +25°C° 0 mm 3 m/S 632 mmHg 25%
    11:00 +27°C° 0 mm 3 m/S 632 mmHg 21%
    12:00 +28°C° 0 mm 4 m/S 632 mmHg 19%
    13:00 +29°C° 0 mm 4 m/S 631 mmHg 18%
    14:00 +29°C° 0 mm 4 m/S 631 mmHg 16%
    15:00 +29°C° 0 mm 4 m/S 631 mmHg 18%
    16:00 +28°C° 0 mm 4 m/S 631 mmHg 20%
    17:00 +28°C° 0 mm 4 m/S 631 mmHg 22%
    18:00 +26°C° 0 mm 3 m/S 631 mmHg 28%
    19:00 +22°C° 0 mm 3 m/S 631 mmHg 35%
    20:00 +20°C° 0 mm 2 m/S 631 mmHg 41%
    21:00 +20°C° 0 mm 2 m/S 631 mmHg 42%
    22:00 +19°C° 0 mm 2 m/S 631 mmHg 42%
    23:00 +19°C° 0 mm 1 m/S 631 mmHg 43%

    Morgen, 25 Juni, Dienstag

    Zeit Temperatur Niederschläge Wind Luftdruck Luftfeuchtigkeit
    00:00 +18°C° 0 mm 2 m/S 631 mmHg 42%
    01:00 +17°C° 0 mm 2 m/S 631 mmHg 41%
    02:00 +17°C° 0 mm 2 m/S 631 mmHg 39%
    03:00 +17°C° 0 mm 2 m/S 631 mmHg 40%
    04:00 +16°C° 0 mm 2 m/S 631 mmHg 41%
    05:00 +16°C° 0 mm 2 m/S 631 mmHg 42%
    06:00 +19°C° 0 mm 1 m/S 631 mmHg 38%
    07:00 +21°C° 0 mm 1 m/S 632 mmHg 33%
    08:00 +23°C° 0 mm 1 m/S 633 mmHg 29%
    09:00 +25°C° 0 mm 1 m/S 633 mmHg 26%
    10:00 +27°C° 0 mm 1 m/S 633 mmHg 22%
    11:00 +29°C° 0 mm 2 m/S 634 mmHg 18%
    12:00 +29°C° 0 mm 3 m/S 633 mmHg 19%
    13:00 +29°C° 0 mm 3 m/S 633 mmHg 20%
    14:00 +29°C° 0 mm 4 m/S 633 mmHg 21%
    15:00 +28°C° 0.1 mm 4 m/S 633 mmHg 25%
    16:00 +26°C° 0.1 mm 4 m/S 633 mmHg 30%
    17:00 +25°C° 0.1 mm 4 m/S 633 mmHg 35%
    18:00 +22°C° 0.1 mm 4 m/S 633 mmHg 39%
    19:00 +21°C° 0.1 mm 4 m/S 633 mmHg 42%
    20:00 +20°C° 0.1 mm 5 m/S 633 mmHg 46%
    21:00 +19°C° 0 mm 4 m/S 633 mmHg 47%
    22:00 +19°C° 0 mm 3 m/S 633 mmHg 48%
    23:00 +18°C° 0 mm 2 m/S 633 mmHg 49%

    übermorgen, 26 Juni, Mittwoch

    Zeit Temperatur Niederschläge Wind Luftdruck Luftfeuchtigkeit
    00:00 +18°C° 0 mm 2 m/S 633 mmHg 48%
    01:00 +18°C° 0 mm 2 m/S 633 mmHg 46%
    02:00 +17°C° 0 mm 2 m/S 632 mmHg 45%
    03:00 +17°C° 0 mm 2 m/S 632 mmHg 44%
    04:00 +17°C° 0 mm 2 m/S 632 mmHg 44%
    05:00 +17°C° 0 mm 2 m/S 632 mmHg 43%
    06:00 +19°C° 0 mm 2 m/S 633 mmHg 39%
    07:00 +21°C° 0 mm 2 m/S 633 mmHg 34%
    08:00 +25°C° 0 mm 2 m/S 634 mmHg 29%
    09:00 +27°C° 0 mm 2 m/S 634 mmHg 25%
    10:00 +29°C° 0 mm 3 m/S 635 mmHg 20%
    11:00 +33°C° 0 mm 3 m/S 635 mmHg 15%
    12:00 +33°C° 0 mm 3 m/S 635 mmHg 16%
    13:00 +32°C° 0 mm 4 m/S 634 mmHg 16%
    14:00 +32°C° 0 mm 4 m/S 634 mmHg 17%
    15:00 +32°C° 0.1 mm 4 m/S 634 mmHg 19%
    16:00 +30°C° 0.1 mm 4 m/S 634 mmHg 21%
    17:00 +29°C° 0.1 mm 4 m/S 634 mmHg 23%
    18:00 +28°C° 0 mm 4 m/S 633 mmHg 27%
    19:00 +26°C° 0 mm 3 m/S 633 mmHg 30%
    20:00 +24°C° 0 mm 3 m/S 633 mmHg 34%
    21:00 +22°C° 0 mm 3 m/S 633 mmHg 34%
    22:00 +22°C° 0 mm 3 m/S 633 mmHg 33%
    23:00 +21°C° 0 mm 3 m/S 633 mmHg 32%

    27 Juni, Donnerstag

    Zeit Temperatur Niederschläge Wind Luftdruck Luftfeuchtigkeit
    00:00 +20°C° 0 mm 3 m/S 633 mmHg 31%
    01:00 +19°C° 0 mm 2 m/S 633 mmHg 30%
    02:00 +19°C° 0 mm 2 m/S 633 mmHg 29%
    03:00 +18°C° 0 mm 2 m/S 633 mmHg 29%
    04:00 +18°C° 0 mm 3 m/S 633 mmHg 28%
    05:00 +18°C° 0 mm 3 m/S 633 mmHg 28%
    06:00 +21°C° 0 mm 3 m/S 634 mmHg 25%
    07:00 +25°C° 0 mm 3 m/S 635 mmHg 23%
    08:00 +27°C° 0 mm 4 m/S 635 mmHg 21%
    09:00 +29°C° 0 mm 3 m/S 636 mmHg 18%
    10:00 +31°C° 0 mm 3 m/S 636 mmHg 16%
    11:00 +34°C° 0 mm 2 m/S 636 mmHg 13%
    12:00 +35°C° 0 mm 3 m/S 636 mmHg 13%
    13:00 +36°C° 0 mm 3 m/S 636 mmHg 12%
    14:00 +37°C° 0 mm 3 m/S 636 mmHg 11%
    15:00 +36°C° 0 mm 3 m/S 636 mmHg 13%
    16:00 +35°C° 0 mm 4 m/S 635 mmHg 15%
    17:00 +35°C° 0 mm 4 m/S 635 mmHg 17%
    18:00 +32°C° 0.3 mm 4 m/S 635 mmHg 22%
    19:00 +29°C° 0.3 mm 5 m/S 634 mmHg 27%
    20:00 +27°C° 0.3 mm 5 m/S 634 mmHg 31%
    21:00 +26°C° 0 mm 4 m/S 634 mmHg 34%
    22:00 +25°C° 0 mm 4 m/S 634 mmHg 36%
    23:00 +24°C° 0 mm 3 m/S 634 mmHg 39%

    28 Juni, Freitag

    Zeit Temperatur Niederschläge Wind Luftdruck Luftfeuchtigkeit
    00:00 +22°C° 0 mm 3 m/S 634 mmHg 40%
    01:00 +21°C° 0 mm 2 m/S 634 mmHg 41%
    02:00 +21°C° 0 mm 2 m/S 633 mmHg 42%
    03:00 +20°C° 0 mm 2 m/S 634 mmHg 43%
    04:00 +20°C° 0 mm 2 m/S 634 mmHg 43%
    05:00 +20°C° 0 mm 2 m/S 634 mmHg 44%
    06:00 +24°C° 0 mm 2 m/S 634 mmHg 38%
    07:00 +26°C° 0 mm 2 m/S 635 mmHg 32%
    08:00 +29°C° 0 mm 2 m/S 636 mmHg 26%
    09:00 +31°C° 0 mm 2 m/S 636 mmHg 22%
    10:00 +32°C° 0 mm 2 m/S 636 mmHg 17%
    11:00 +35°C° 0 mm 2 m/S 637 mmHg 13%
    12:00 +36°C° 0 mm 3 m/S 636 mmHg 12%
    13:00 +37°C° 0 mm 3 m/S 636 mmHg 12%
    14:00 +38°C° 0 mm 4 m/S 636 mmHg 11%
    15:00 +37°C° 0 mm 4 m/S 636 mmHg 14%
    16:00 +36°C° 0 mm 5 m/S 635 mmHg 17%
    17:00 +34°C° 0 mm 5 m/S 635 mmHg 19%
    18:00 +33°C° 0 mm 5 m/S 635 mmHg 23%
    19:00 +30°C° 0 mm 5 m/S 634 mmHg 26%
    20:00 +28°C° 0 mm 4 m/S 634 mmHg 30%
    21:00 +27°C° 0.2 mm 5 m/S 634 mmHg 32%
    22:00 +26°C° 0.2 mm 5 m/S 634 mmHg 34%
    23:00 +26°C° 0.2 mm 6 m/S 635 mmHg 36%

    29 Juni, Samstag

    Zeit Temperatur Niederschläge Wind Luftdruck Luftfeuchtigkeit
    00:00 +25°C° 0 mm 5 m/S 634 mmHg 36%
    01:00 +23°C° 0 mm 4 m/S 634 mmHg 37%
    02:00 +23°C° 0 mm 4 m/S 634 mmHg 37%
    03:00 +22°C° 0 mm 3 m/S 634 mmHg 38%
    04:00 +22°C° 0 mm 3 m/S 634 mmHg 39%
    05:00 +22°C° 0 mm 3 m/S 634 mmHg 39%
    06:00 +25°C° 0 mm 3 m/S 635 mmHg 33%
    07:00 +27°C° 0 mm 2 m/S 635 mmHg 26%
    08:00 +30°C° 0 mm 2 m/S 636 mmHg 20%
    09:00 +32°C° 0 mm 2 m/S 636 mmHg 17%
    10:00 +34°C° 0 mm 2 m/S 637 mmHg 14%
    11:00 +36°C° 0 mm 2 m/S 637 mmHg 11%
    12:00 +37°C° 0 mm 3 m/S 637 mmHg 11%
    13:00 +37°C° 0 mm 4 m/S 637 mmHg 11%
    14:00 +39°C° 0 mm 5 m/S 636 mmHg 12%
    15:00 +37°C° 0 mm 5 m/S 636 mmHg 15%
    16:00 +35°C° 0 mm 5 m/S 635 mmHg 18%
    17:00 +34°C° 0 mm 5 m/S 635 mmHg 21%
    18:00 +30°C° 0.3 mm 4 m/S 635 mmHg 30%
    19:00 +27°C° 0.3 mm 3 m/S 634 mmHg 40%
    20:00 +24°C° 0.3 mm 3 m/S 634 mmHg 50%
    21:00 +23°C° 0 mm 2 m/S 634 mmHg 51%
    22:00 +23°C° 0 mm 2 m/S 634 mmHg 53%
    23:00 +22°C° 0 mm 1 m/S 635 mmHg 54%
    Mehr zeigen